Accueil
METAR-TAF:

METAR-TAF

Aéroports :

Aéroport de Morlaix Ploujean

Morlaix, France

latitude: 48-36N, longitude: 3-49W, altitude: 84 m

Observation

Le bulletin a été fait il y a 5 heures et 39 minutes, à 20:00 UTC
Vent 5 kt de ouest
Température 17°C
Humidité 77%
Pression 1017 hPa
Visibilité 10 km ou plus
Nuages fragmentés à une hauteur de 3800 ft
Ciel couvert à une hauteur de 4600 ft

METAR: LFRU 162000Z AUTO 28005KT 9999 BKN038 OVC046 17/13 Q1017

Heure: 03:39 (01:39 UTC)


TAF: absent

Observations et prévisions météorologiques de plus de 4000 aéroports (messages METAR et TAF).

Les stations disponibles sont représentées par des disques jaunes et rouges sur la carte.

Passer la souris dessus pour voir le nom de la station.

Cliquer dessus pour voir les observations et prévisions météorologiques.

Pour changer de carte: cliquez sur les boutons verts avec une croix noire pour zoomer, sur le bouton vert avec un tiret pour effectuer un zoom arrière, ou sur les flèches vertes pour les cartes adjacentes.


METAR-TAF: